Flag for United Kingdom Weather past 2 weeks in St Helens, England, United Kingdom

Now
59 °F

Scattered clouds.


Feels Like: 57 °F
Forecast: 50 / 60 °F
Wind: 13 mph from Northwest

Location: Liverpool Airport

Current Time: Jul 29, 2015 at 1:07:42 PM

Latest Report: Jul 29, 2015 at 12:20 PM


Visibility: N/A

Pressure: 29.86 "Hg

Humidity: 77%

Dew point: 52 °F

Location of St HelensLocation

Historic Weather in St Helens — Graph

°F

St Helens temperature yesterday

Maximum temperature yesterday: 61 °F (at 2:20 PM)
Minimum temperature yesterday: 54 °F (at 3:50 AM)
Average temperature yesterday: 57 °F

Past Weeks' High & Low Weather Summary

 TemperatureHumidityPressure
High72 °F (Jul 16, 4:20 PM)100% (Jul 16, 2:50 AM)30.15 "Hg (Jul 16, 2:50 AM)
Low48 °F (Jul 16, 4:50 AM)49% (Jul 17, 3:20 PM)29.33 "Hg (Jul 26, 8:50 PM)
Average59 °F78%29.84 "Hg
* Reported Jul 14 11:20 AM — Jul 29 11:50 AM, St Helens, Weather by CustomWeather, © 2015

Note: Actual official high and low records may vary slightly from our data, if they occured in-between our weather recording intervals... More about our weather records

Advertising

St Helens weather history for previous 24 hours

 ConditionsComfort  
Time TempWeatherWind HumidityBarometerVisibility
11:50 AM
Wed, Jul 29
57 °FScattered clouds.12 mph77%29.86 "HgN/A
11:20 AM57 °FSprinkles. Scattered clouds.14 mph82%29.86 "HgN/A
10:50 AM57 °FScattered clouds.12 mph77%29.83 "HgN/A
10:20 AM59 °FScattered clouds.13 mph72%29.83 "HgN/A
9:50 AM57 °FPassing clouds.12 mph82%29.83 "HgN/A
9:20 AM57 °FScattered showers. Scattered clouds.9 mph88%29.80 "HgN/A
8:20 AM54 °FScattered showers. Scattered clouds.6 mph94%29.80 "HgN/A
7:50 AM54 °FScattered showers. Broken clouds.3 mph94%29.77 "Hg6 mi
7:20 AM54 °FSprinkles. Broken clouds.6 mph94%29.77 "Hg5 mi
6:50 AM54 °FSprinkles. Broken clouds.7 mph94%29.77 "Hg6 mi
6:20 AM54 °FSprinkles. Passing clouds.10 mph94%29.77 "HgN/A
5:50 AM54 °FSprinkles. Passing clouds.10 mph94%29.74 "HgN/A
5:20 AM54 °FPassing clouds.12 mph94%29.74 "HgN/A
4:50 AM54 °FPassing clouds.9 mph94%29.74 "HgN/A
4:20 AM54 °FPassing clouds.13 mph88%29.74 "HgN/A
3:50 AM54 °FPassing clouds.14 mph88%29.74 "HgN/A
3:20 AM54 °FPassing clouds.13 mph88%29.74 "HgN/A
2:50 AM54 °FPassing clouds.15 mph88%29.74 "HgN/A
2:20 AM54 °FPassing clouds.12 mph88%29.74 "HgN/A
1:50 AM54 °FPassing clouds.10 mph88%29.74 "HgN/A
1:20 AM54 °FPassing clouds.12 mph88%29.74 "HgN/A
12:50 AM54 °FPassing clouds.12 mph88%29.74 "HgN/A
12:20 AM55 °FPassing clouds.10 mph82%29.74 "HgN/A
11:50 PM
Tue, Jul 28
55 °FPassing clouds.12 mph82%29.74 "HgN/A
11:20 PM55 °FPassing clouds.12 mph82%29.74 "HgN/A
10:50 PM55 °FPassing clouds.9 mph82%29.74 "HgN/A
10:20 PM55 °FPassing clouds.13 mph77%29.71 "HgN/A
9:50 PM57 °FPassing clouds.14 mph77%29.71 "HgN/A
9:20 PM57 °FScattered clouds.15 mph72%29.71 "HgN/A
8:50 PM57 °FScattered showers. Scattered clouds.17 mph72%29.71 "HgN/A
8:20 PM57 °FScattered showers. Scattered clouds.14 mph77%29.71 "HgN/A
7:50 PM57 °FSprinkles. Scattered clouds.17 mph77%29.71 "HgN/A
7:20 PM57 °FSprinkles. Scattered clouds.14 mph72%29.71 "HgN/A
6:50 PM59 °FScattered showers. Scattered clouds.16 mph72%29.71 "HgN/A
6:20 PM61 °FScattered clouds.20 mph68%29.71 "HgN/A
5:50 PM61 °FPartly sunny.21 mph63%29.71 "HgN/A
5:20 PM61 °FScattered clouds.20 mph59%29.71 "HgN/A
4:50 PM61 °FBroken clouds.22 mph63%29.71 "HgN/A
4:20 PM59 °FScattered clouds.22 mph72%29.68 "HgN/A
3:50 PM59 °FScattered clouds.23 mph72%29.68 "HgN/A
3:20 PM59 °FScattered clouds.22 mph72%29.68 "HgN/A
2:50 PM59 °FScattered showers. Scattered clouds.21 mph72%29.68 "HgN/A
2:20 PM61 °FScattered showers. Partly sunny.21 mph72%29.68 "HgN/A
1:50 PM59 °FScattered showers. Broken clouds.21 mph82%29.68 "HgN/A
1:20 PM59 °FScattered showers. Broken clouds.22 mph82%29.68 "HgN/A
Weather by CustomWeather, © 2015

See weather overviewHow to use our weather pages